Location: Astronomy Club of Akron Observatory
(40.9700°N, 81.5606°W)
Time: 06:50:20
(UTC-04:00)

ATLAS 2AS CENTAUR R/B - Visible Passes

Search period start: 31 August 2015 00:00
Search period end: 10 September 2015 00:00
Orbit: 911 x 1301 km, 63.7° (Epoch: 28 August)

Date Brightness Start Highest point End Pass type
(mag) Time Alt. Az. Time Alt. Az. Time Alt. Az.
31 Aug 5.1 01:16:15 10° WNW 01:21:53 21° NNW 01:27:34 10° NNE visible
31 Aug 5.6 03:12:46 10° NNW 03:16:23 13° N 03:20:03 10° NNE visible
31 Aug 5.3 05:04:43 10° NNW 05:10:48 23° NNE 05:16:58 10° E visible
31 Aug 4.0 20:49:28 10° SE 20:54:03 19° ESE 20:59:12 10° ENE visible
31 Aug 2.8 22:36:49 10° SSW 22:44:07 88° WNW 22:52:06 10° NE visible
01 Sep 4.7 00:30:02 10° W 00:36:21 27° NNW 00:42:51 10° NNE visible
01 Sep 5.5 02:26:44 10° NW 02:30:32 14° N 02:34:20 10° NNE visible
01 Sep 5.5 04:19:58 10° NNW 04:25:11 18° NNE 04:30:32 10° ENE visible
01 Sep 4.2 06:10:38 10° NNW 06:18:27 49° NE 06:26:00 10° ESE visible
01 Sep 2.8 21:52:18 10° SSW 21:59:23 63° ESE 22:07:10 10° NE visible
01 Sep 4.3 23:44:09 10° WSW 23:50:59 36° NW 23:58:11 10° NNE visible
02 Sep 5.5 01:40:19 10° NW 01:44:44 15° NNW 01:49:05 10° NNE visible
02 Sep 5.6 03:35:04 10° NNW 03:39:27 15° NNE 03:43:58 10° NE visible
02 Sep 4.7 05:25:56 10° NNW 05:33:14 35° NE 05:40:24 10° ESE visible
02 Sep 3.2 21:08:16 10° S 21:14:50 41° ESE 21:22:03 10° NE visible
02 Sep 3.7 22:58:37 10° WSW 23:05:47 49° NW 23:13:29 10° NNE visible
03 Sep 5.3 00:53:48 10° WNW 00:59:00 18° NNW 01:04:11 10° NNE visible
03 Sep 5.6 02:49:51 10° NNW 02:53:37 14° N 02:57:30 10° NE visible
03 Sep 5.0 04:41:16 10° NNW 04:47:50 27° NNE 04:54:26 10° E visible
03 Sep 3.7 20:24:50 10° SSE 20:30:24 26° ESE 20:36:33 10° NE visible
03 Sep 3.2 22:13:27 10° SW 22:20:46 71° NW 22:28:44 10° NNE visible
04 Sep 5.0 00:07:27 10° W 00:13:22 23° NNW 00:19:25 10° NNE visible
04 Sep 5.6 02:04:08 10° NNW 02:07:46 13° N 02:11:25 10° NNE visible
04 Sep 5.3 03:56:34 10° NNW 04:02:18 21° NNE 04:08:08 10° ENE visible
04 Sep 3.7 05:47:11 10° NNW 05:55:14 60° NE 06:02:56 10° SE visible
04 Sep 2.8 21:28:41 10° SSW 21:35:56 80° ESE 21:43:53 10° NE visible
04 Sep 4.6 23:21:22 10° W 23:27:55 30° NW 23:34:43 10° NNE visible
05 Sep 5.6 01:17:55 10° NW 01:21:56 14° N 01:25:54 10° NNE visible
05 Sep 5.5 03:11:46 10° NNW 03:16:37 17° NNE 03:21:38 10° ENE visible
05 Sep 4.3 05:02:29 10° NNW 05:10:07 42° NE 05:17:32 10° ESE visible
05 Sep 3.0 20:44:21 10° S 20:51:17 53° ESE 20:58:53 10° NE visible
05 Sep 4.2 22:35:37 10° WSW 22:42:36 40° NW 22:50:02 10° NNE visible
06 Sep 5.4 00:31:26 10° NW 00:36:09 16° NNW 00:40:50 10° NNE visible
06 Sep 5.6 02:26:45 10° NNW 02:30:51 14° N 02:35:04 10° NE visible
06 Sep 4.7 04:17:49 10° NNW 04:24:49 31° NE 04:31:46 10° E visible
06 Sep 3.1 06:08:37 10° NW 06:16:46 79° WSW 06:24:28 10° SSE visible
06 Sep 3.6 21:50:14 10° SW 21:57:29 57° NW 22:05:19 10° NNE visible
06 Sep 5.2 23:44:58 10° WNW 23:50:28 20° NNW 23:55:59 10° NNE visible
07 Sep 5.6 01:41:21 10° NNW 01:45:01 13° N 01:48:44 10° NNE visible
07 Sep 5.1 03:33:08 10° NNW 03:39:22 24° NNE 03:45:40 10° E visible
07 Sep 3.3 05:23:47 10° NNW 05:31:56 73° NE 05:39:42 10° SE visible
07 Sep 3.0 21:05:14 10° SW 21:12:33 82° NW 21:20:32 10° NNE visible
07 Sep 4.9 22:58:42 10° W 23:04:54 25° NNW 23:11:16 10° NNE visible
08 Sep 5.6 00:55:26 10° NNW 00:59:09 14° N 01:02:53 10° NNE visible
08 Sep 5.3 02:48:24 10° NNW 02:53:46 19° NNE 02:59:17 10° ENE visible
08 Sep 3.8 04:39:02 10° NNW 04:46:56 52° NE 04:54:33 10° ESE visible
08 Sep 3.4 06:30:27 10° NW 06:37:55 41° WSW 06:44:53 10° S visible
08 Sep 2.9 20:20:38 10° SSW 20:27:47 68° ESE 20:35:38 10° NE visible
08 Sep 4.5 22:12:45 10° WSW 22:19:30 34° NW 22:26:35 10° NNE visible
09 Sep 5.5 00:09:03 10° NW 00:13:20 15° NNW 00:17:34 10° NNE visible
09 Sep 5.5 02:03:32 10° NNW 02:08:03 16° NNE 02:12:43 10° NE visible
09 Sep 4.4 03:54:21 10° NNW 04:01:45 37° NE 04:09:00 10° ESE visible
09 Sep 3.0 05:45:20 10° NW 05:53:20 63° WSW 06:00:51 10° SSE visible
09 Sep 4.0 21:27:09 10° WSW 21:34:16 46° NW 21:41:53 10° NNE visible
09 Sep 5.4 23:22:33 10° WNW 23:27:36 18° NNW 23:32:36 10° NNE visible
